Time,TemperatureF,DewpointF,PressureIn,WindDirection,WindDirectionDegrees,WindSpeedMPH,WindSpeedGustMPH,Humidity,HourlyPrecipIn,Conditions,Clouds,dailyrainin,SoftwareType,DateUTC
2013-03-05 00:02:00,52.3,8.8,27.79,WSW,253,0.0,0.0,17,0.00,,CLR,0.00,VWS V14.01,2013-03-05 08:02:00,
2013-03-05 00:07:00,52.2,8.7,27.79,WSW,253,0.0,0.0,17,0.00,,CLR,0.00,VWS V14.01,2013-03-05 08:07:00,
2013-03-05 00:12:00,51.8,8.4,27.79,WSW,253,0.0,0.0,17,0.00,,CLR,0.00,VWS V14.01,2013-03-05 08:12:00,
2013-03-05 00:17:00,51.4,9.4,27.79,WSW,253,0.0,0.0,18,0.00,,CLR,0.00,VWS V14.01,2013-03-05 08:17:00,
2013-03-05 00:22:00,51.1,9.1,27.79,WSW,252,0.0,0.0,18,0.00,,CLR,0.00,VWS V14.01,2013-03-05 08:22:00,
2013-03-05 00:27:00,50.7,8.8,27.79,WSW,252,0.0,0.0,18,0.00,,CLR,0.00,VWS V14.01,2013-03-05 08:27:00,
2013-03-05 00:32:00,50.9,8.9,27.79,WSW,253,0.0,0.0,18,0.00,,CLR,0.00,VWS V14.01,2013-03-05 08:32:00,
2013-03-05 00:37:00,50.9,8.9,27.79,WSW,252,0.0,0.0,18,0.00,,CLR,0.00,VWS V14.01,2013-03-05 08:37:00,
2013-03-05 00:42:00,51.1,9.1,27.79,WSW,252,0.0,0.0,18,0.00,,CLR,0.00,VWS V14.01,2013-03-05 08:42:00,
2013-03-05 00:47:00,51.1,9.1,27.79,WSW,253,0.0,0.0,18,0.00,,CLR,0.00,VWS V14.01,2013-03-05 08:47:00,
2013-03-05 00:52:00,50.7,8.8,27.79,WSW,252,0.0,0.0,18,0.00,,CLR,0.00,VWS V14.01,2013-03-05 08:52:00,
2013-03-05 00:57:00,50.2,8.3,27.82,WSW,253,0.0,0.0,18,0.00,,CLR,0.00,VWS V14.01,2013-03-05 08:57:00,
2013-03-05 01:02:00,49.8,8.0,27.82,WSW,252,0.0,0.0,18,0.00,,CLR,0.00,VWS V14.01,2013-03-05 09:02:00,
2013-03-05 01:07:00,49.6,7.9,27.82,WSW,253,0.0,0.0,18,0.00,,CLR,0.00,VWS V14.01,2013-03-05 09:07:00,
2013-03-05 01:12:00,49.3,7.6,27.82,WSW,253,0.0,0.0,18,0.00,,CLR,0.00,VWS V14.01,2013-03-05 09:12:00,
2013-03-05 01:17:00,48.9,7.3,27.82,WSW,253,0.0,0.0,18,0.00,,CLR,0.00,VWS V14.01,2013-03-05 09:17:00,
2013-03-05 01:22:00,48.9,9.6,27.82,WSW,253,0.0,0.0,20,0.00,,CLR,0.00,VWS V14.01,2013-03-05 09:22:00,
2013-03-05 01:27:00,48.9,9.6,27.82,WSW,253,0.0,0.0,20,0.00,,CLR,0.00,VWS V14.01,2013-03-05 09:27:00,
2013-03-05 01:32:00,48.9,9.6,27.82,WSW,252,0.0,0.0,20,0.00,,CLR,0.00,VWS V14.01,2013-03-05 09:32:00,
2013-03-05 01:37:00,48.9,9.6,27.82,WSW,252,0.0,0.0,20,0.00,,CLR,0.00,VWS V14.01,2013-03-05 09:37:00,
2013-03-05 01:42:00,48.6,9.3,27.82,WSW,253,0.0,0.0,20,0.00,,CLR,0.00,VWS V14.01,2013-03-05 09:42:00,
2013-03-05 01:47:00,48.6,9.3,27.82,WSW,252,0.0,0.0,20,0.00,,CLR,0.00,VWS V14.01,2013-03-05 09:47:00,
2013-03-05 01:52:00,48.9,9.6,27.82,WSW,252,0.0,0.0,20,0.00,,CLR,0.00,VWS V14.01,2013-03-05 09:52:00,
2013-03-05 01:57:00,49.1,9.8,27.82,WSW,252,0.0,0.0,20,0.00,,CLR,0.00,VWS V14.01,2013-03-05 09:57:00,
2013-03-05 02:02:00,49.3,9.9,27.82,WSW,253,0.0,0.0,20,0.00,,CLR,0.00,VWS V14.01,2013-03-05 10:02:00,
2013-03-05 02:06:00,49.3,9.9,27.82,WSW,253,0.0,0.0,20,0.00,,CLR,0.00,VWS V14.01,2013-03-05 10:06:00,
2013-03-05 02:12:00,49.3,9.9,27.82,WSW,253,0.0,0.0,20,0.00,,CLR,0.00,VWS V14.01,2013-03-05 10:12:00,
2013-03-05 02:16:00,49.3,9.9,27.82,WSW,253,0.0,0.0,20,0.00,,CLR,0.00,VWS V14.01,2013-03-05 10:16:00,
2013-03-05 02:21:00,48.9,9.6,27.82,WSW,253,0.0,0.0,20,0.00,,CLR,0.00,VWS V14.01,2013-03-05 10:21:00,
2013-03-05 02:26:00,48.9,9.6,27.82,WSW,253,0.0,0.0,20,0.00,,CLR,0.00,VWS V14.01,2013-03-05 10:26:00,
2013-03-05 02:31:00,48.9,9.6,27.82,WSW,253,0.0,0.0,20,0.00,,CLR,0.00,VWS V14.01,2013-03-05 10:31:00,
2013-03-05 02:36:00,48.9,9.6,27.82,WSW,253,0.0,0.0,20,0.00,,CLR,0.00,VWS V14.01,2013-03-05 10:36:00,
2013-03-05 02:41:00,48.9,9.6,27.82,WSW,257,0.0,0.0,20,0.00,,CLR,0.00,VWS V14.01,2013-03-05 10:41:00,
2013-03-05 02:46:00,49.1,9.8,27.82,West,259,0.0,0.0,20,0.00,,CLR,0.00,VWS V14.01,2013-03-05 10:46:00,
2013-03-05 02:51:00,49.3,9.9,27.82,West,259,0.0,0.0,20,0.00,,CLR,0.00,VWS V14.01,2013-03-05 10:51:00,
2013-03-05 02:56:00,49.5,10.1,27.82,West,259,0.0,0.0,20,0.00,,CLR,0.00,VWS V14.01,2013-03-05 10:56:00,
2013-03-05 03:01:00,49.3,9.9,27.82,West,259,0.0,0.0,20,0.00,,CLR,0.00,VWS V14.01,2013-03-05 11:01:00,
2013-03-05 03:06:00,49.3,9.9,27.82,West,259,0.0,0.0,20,0.00,,CLR,0.00,VWS V14.01,2013-03-05 11:06:00,
2013-03-05 03:11:00,48.9,9.6,27.82,West,259,0.0,0.0,20,0.00,,CLR,0.00,VWS V14.01,2013-03-05 11:11:00,
2013-03-05 03:16:00,48.7,9.5,27.82,West,259,0.0,0.0,20,0.00,,CLR,0.00,VWS V14.01,2013-03-05 11:16:00,
2013-03-05 03:21:00,48.6,9.3,27.82,West,259,0.0,0.0,20,0.00,,CLR,0.00,VWS V14.01,2013-03-05 11:21:00,
2013-03-05 03:26:00,48.4,9.2,27.82,West,259,0.0,0.0,20,0.00,,CLR,0.00,VWS V14.01,2013-03-05 11:26:00,
2013-03-05 03:31:00,48.7,9.5,27.82,West,259,0.0,0.0,20,0.00,,CLR,0.00,VWS V14.01,2013-03-05 11:31:00,
2013-03-05 03:36:00,48.7,9.5,27.82,West,259,0.0,0.0,20,0.00,,CLR,0.00,VWS V14.01,2013-03-05 11:36:00,
2013-03-05 03:41:00,48.7,9.5,27.82,West,259,0.0,0.0,20,0.00,,CLR,0.00,VWS V14.01,2013-03-05 11:41:00,
2013-03-05 03:46:00,48.2,9.0,27.82,West,259,0.0,0.0,20,0.00,,CLR,0.00,VWS V14.01,2013-03-05 11:46:00,
2013-03-05 03:51:00,48.0,10.0,27.82,West,259,0.0,0.0,21,0.00,,CLR,0.00,VWS V14.01,2013-03-05 11:51:00,
2013-03-05 03:56:00,48.0,10.0,27.82,West,259,0.0,0.0,21,0.00,,CLR,0.00,VWS V14.01,2013-03-05 11:56:00,
2013-03-05 04:01:00,47.7,9.7,27.82,West,259,0.0,0.0,21,0.00,,CLR,0.00,VWS V14.01,2013-03-05 12:01:00,
2013-03-05 04:06:00,47.5,9.5,27.82,West,259,0.0,0.0,21,0.00,,CLR,0.00,VWS V14.01,2013-03-05 12:06:00,
2013-03-05 04:11:00,47.5,9.5,27.82,West,259,0.0,0.0,21,0.00,,CLR,0.00,VWS V14.01,2013-03-05 12:11:00,
2013-03-05 04:16:00,47.1,9.2,27.82,West,259,0.0,0.0,21,0.00,,CLR,0.00,VWS V14.01,2013-03-05 12:16:00,
2013-03-05 04:21:00,46.9,9.1,27.82,West,259,0.0,0.0,21,0.00,,CLR,0.00,VWS V14.01,2013-03-05 12:21:00,
2013-03-05 04:26:00,46.4,8.6,27.82,West,259,0.0,0.0,21,0.00,,CLR,0.00,VWS V14.01,2013-03-05 12:26:00,
2013-03-05 04:31:00,46.2,8.4,27.82,West,259,0.0,0.0,21,0.00,,CLR,0.00,VWS V14.01,2013-03-05 12:31:00,
2013-03-05 04:36:00,45.9,8.1,27.82,West,259,0.0,0.0,21,0.00,,CLR,0.00,VWS V14.01,2013-03-05 12:36:00,
2013-03-05 04:41:00,45.5,7.8,27.82,West,259,0.0,0.0,21,0.00,,CLR,0.00,VWS V14.01,2013-03-05 12:41:00,
2013-03-05 04:47:00,45.1,7.6,27.82,West,259,0.0,0.0,21,0.00,,CLR,0.00,VWS V14.01,2013-03-05 12:47:00,
2013-03-05 04:52:00,45.1,7.6,27.82,West,259,0.0,0.0,21,0.00,,CLR,0.00,VWS V14.01,2013-03-05 12:52:00,
2013-03-05 04:56:00,45.1,7.6,27.82,West,259,0.0,0.0,21,0.00,,CLR,0.00,VWS V14.01,2013-03-05 12:56:00,
2013-03-05 05:01:00,45.1,7.6,27.82,West,259,0.0,0.0,21,0.00,,CLR,0.00,VWS V14.01,2013-03-05 13:01:00,
2013-03-05 05:06:00,45.3,10.7,27.82,West,259,0.0,0.0,24,0.00,,CLR,0.00,VWS V14.01,2013-03-05 13:06:00,
2013-03-05 05:11:00,45.3,10.7,27.82,West,259,0.0,0.0,24,0.00,,CLR,0.00,VWS V14.01,2013-03-05 13:11:00,
2013-03-05 05:16:00,45.5,10.8,27.82,West,259,0.0,0.0,24,0.00,,CLR,0.00,VWS V14.01,2013-03-05 13:16:00,
2013-03-05 05:21:00,45.3,10.7,27.82,West,259,0.0,0.0,24,0.00,,CLR,0.00,VWS V14.01,2013-03-05 13:21:00,
2013-03-05 05:26:00,45.1,10.5,27.82,West,259,0.0,0.0,24,0.00,,CLR,0.00,VWS V14.01,2013-03-05 13:26:00,
2013-03-05 05:31:00,45.0,10.4,27.82,West,259,0.0,0.0,24,0.00,,CLR,0.00,VWS V14.01,2013-03-05 13:31:00,
2013-03-05 05:36:00,44.8,10.2,27.82,West,259,0.0,0.0,24,0.00,,CLR,0.00,VWS V14.01,2013-03-05 13:36:00,
2013-03-05 05:41:00,44.8,10.2,27.82,West,259,0.0,0.0,24,0.00,,CLR,0.00,VWS V14.01,2013-03-05 13:41:00,
2013-03-05 05:46:00,44.6,10.1,27.82,West,259,0.0,0.0,24,0.00,,CLR,0.00,VWS V14.01,2013-03-05 13:46:00,
2013-03-05 05:51:00,44.6,10.1,27.82,West,259,0.0,0.0,24,0.00,,CLR,0.00,VWS V14.01,2013-03-05 13:51:00,
2013-03-05 05:56:00,44.6,10.1,27.82,West,259,0.0,0.0,24,0.00,,CLR,0.00,VWS V14.01,2013-03-05 13:56:00,
2013-03-05 06:02:00,44.4,9.9,27.82,West,259,0.0,0.0,24,0.00,,CLR,0.00,VWS V14.01,2013-03-05 14:02:00,
2013-03-05 06:06:00,44.2,12.4,27.82,West,259,0.0,0.0,27,0.00,,CLR,0.00,VWS V14.01,2013-03-05 14:06:00,
2013-03-05 06:11:00,44.4,12.6,27.82,West,259,0.0,0.0,27,0.00,,CLR,0.00,VWS V14.01,2013-03-05 14:11:00,
2013-03-05 06:16:00,44.4,12.6,27.82,West,260,0.0,0.0,27,0.00,,CLR,0.00,VWS V14.01,2013-03-05 14:16:00,
2013-03-05 06:21:00,44.6,11.9,27.82,West,259,0.0,0.0,26,0.00,,CLR,0.00,VWS V14.01,2013-03-05 14:21:00,
2013-03-05 06:26:00,44.6,11.9,27.82,West,259,0.0,0.0,26,0.00,,CLR,0.00,VWS V14.01,2013-03-05 14:26:00,
2013-03-05 06:31:00,44.8,12.0,27.82,West,260,0.0,0.0,26,0.00,,CLR,0.00,VWS V14.01,2013-03-05 14:31:00,
2013-03-05 06:36:00,45.0,12.2,27.82,West,259,0.0,0.0,26,0.00,,CLR,0.00,VWS V14.01,2013-03-05 14:36:00,
2013-03-05 06:41:00,45.3,12.5,27.82,West,259,0.0,0.0,26,0.00,,CLR,0.00,VWS V14.01,2013-03-05 14:41:00,
2013-03-05 06:46:00,45.9,12.9,27.82,West,259,0.0,0.0,26,0.00,,CLR,0.00,VWS V14.01,2013-03-05 14:46:00,
2013-03-05 06:51:00,46.2,13.2,27.82,West,259,0.0,0.0,26,0.00,,CLR,0.00,VWS V14.01,2013-03-05 14:51:00,
2013-03-05 06:56:00,46.8,13.7,27.82,West,260,0.0,0.0,26,0.00,,CLR,0.00,VWS V14.01,2013-03-05 14:56:00,
2013-03-05 07:01:00,47.3,14.2,27.82,West,259,0.0,0.0,26,0.00,,CLR,0.00,VWS V14.01,2013-03-05 15:01:00,
2013-03-05 07:06:00,48.0,14.8,27.82,West,259,0.0,0.0,26,0.00,,CLR,0.00,VWS V14.01,2013-03-05 15:06:00,
2013-03-05 07:11:00,48.6,14.4,27.82,West,259,0.0,0.0,25,0.00,,CLR,0.00,VWS V14.01,2013-03-05 15:11:00,
2013-03-05 07:16:00,49.3,15.0,27.82,West,259,0.0,0.0,25,0.00,,CLR,0.00,VWS V14.01,2013-03-05 15:16:00,
2013-03-05 07:21:00,50.0,15.6,27.82,West,259,0.0,0.0,25,0.00,,CLR,0.00,VWS V14.01,2013-03-05 15:21:00,
2013-03-05 07:26:00,50.5,14.1,27.82,West,260,0.0,0.0,23,0.00,,CLR,0.00,VWS V14.01,2013-03-05 15:26:00,
2013-03-05 07:31:00,51.1,14.6,27.82,West,259,0.0,0.0,23,0.00,,CLR,0.00,VWS V14.01,2013-03-05 15:31:00,
2013-03-05 07:36:00,51.8,14.2,27.82,West,259,0.0,0.0,22,0.00,,CLR,0.00,VWS V14.01,2013-03-05 15:36:00,
2013-03-05 07:41:00,52.7,14.9,27.82,West,259,0.0,0.0,22,0.00,,CLR,0.00,VWS V14.01,2013-03-05 15:41:00,
2013-03-05 07:46:00,53.8,12.5,27.82,West,259,0.0,0.0,19,0.00,,CLR,0.00,VWS V14.01,2013-03-05 15:46:00,
2013-03-05 07:51:00,54.1,12.8,27.82,West,259,0.0,0.0,19,0.00,,CLR,0.00,VWS V14.01,2013-03-05 15:51:00,
2013-03-05 07:56:00,55.0,13.6,27.85,West,259,0.0,0.0,19,0.00,,CLR,0.00,VWS V14.01,2013-03-05 15:56:00,
2013-03-05 08:01:00,55.9,14.3,27.85,West,259,0.0,0.0,19,0.00,,CLR,0.00,VWS V14.01,2013-03-05 16:01:00,
2013-03-05 08:06:00,56.7,14.9,27.85,West,259,0.0,0.0,19,0.00,,CLR,0.00,VWS V14.01,2013-03-05 16:06:00,
2013-03-05 08:11:00,56.8,15.0,27.82,WSW,258,0.0,0.0,19,0.00,,CLR,0.00,VWS V14.01,2013-03-05 16:11:00,
2013-03-05 08:16:00,56.8,15.0,27.82,West,259,0.0,0.0,19,0.00,,CLR,0.00,VWS V14.01,2013-03-05 16:16:00,
2013-03-05 08:21:00,57.2,14.1,27.82,WSW,257,0.0,0.0,18,0.00,,CLR,0.00,VWS V14.01,2013-03-05 16:21:00,
2013-03-05 08:26:00,57.4,14.2,27.85,WSW,250,0.0,0.0,18,0.00,,CLR,0.00,VWS V14.01,2013-03-05 16:26:00,
2013-03-05 08:31:00,58.1,14.8,27.85,SSE,161,0.0,0.0,18,0.00,,CLR,0.00,VWS V14.01,2013-03-05 16:31:00,
2013-03-05 08:36:00,58.8,15.4,27.85,SE,143,0.0,0.0,18,0.00,,CLR,0.00,VWS V14.01,2013-03-05 16:36:00,
2013-03-05 08:41:00,59.4,13.2,27.85,SE,146,0.0,0.0,16,0.00,,CLR,0.00,VWS V14.01,2013-03-05 16:41:00,
2013-03-05 08:46:00,59.9,13.6,27.85,SSE,156,0.0,0.0,16,0.00,,CLR,0.00,VWS V14.01,2013-03-05 16:46:00,
2013-03-05 08:51:00,60.3,13.9,27.85,SE,128,0.0,0.0,16,0.00,,CLR,0.00,VWS V14.01,2013-03-05 16:51:00,
2013-03-05 08:56:00,60.6,14.2,27.82,SE,139,0.0,0.0,16,0.00,,CLR,0.00,VWS V14.01,2013-03-05 16:56:00,
2013-03-05 09:01:00,61.2,13.2,27.82,ESE,123,0.0,0.0,15,0.00,,CLR,0.00,VWS V14.01,2013-03-05 17:01:00,
2013-03-05 09:06:00,61.9,13.8,27.82,SE,146,0.0,0.0,15,0.00,,CLR,0.00,VWS V14.01,2013-03-05 17:06:00,
2013-03-05 09:11:00,62.1,13.9,27.82,SE,140,0.0,0.0,15,0.00,,CLR,0.00,VWS V14.01,2013-03-05 17:11:00,
2013-03-05 09:16:00,62.6,14.3,27.82,SE,133,0.0,0.0,15,0.00,,CLR,0.00,VWS V14.01,2013-03-05 17:16:00,
2013-03-05 09:21:00,63.0,14.6,27.82,SE,129,0.0,0.0,15,0.00,,CLR,0.00,VWS V14.01,2013-03-05 17:21:00,
2013-03-05 09:26:00,63.1,14.8,27.82,ESE,120,0.0,0.0,15,0.00,,CLR,0.00,VWS V14.01,2013-03-05 17:26:00,
2013-03-05 09:31:00,63.1,14.8,27.82,ESE,116,0.0,0.0,15,0.00,,CLR,0.00,VWS V14.01,2013-03-05 17:31:00,
2013-03-05 09:36:00,63.3,14.9,27.82,SE,135,0.0,0.0,15,0.00,,CLR,0.00,VWS V14.01,2013-03-05 17:36:00,
2013-03-05 09:41:00,63.3,14.9,27.82,ENE,75,0.0,0.0,15,0.00,,CLR,0.00,VWS V14.01,2013-03-05 17:41:00,
2013-03-05 09:46:00,63.9,15.3,27.82,ENE,71,0.0,0.0,15,0.00,,CLR,0.00,VWS V14.01,2013-03-05 17:46:00,
2013-03-05 09:51:00,64.4,14.2,27.82,ESE,109,0.0,0.0,14,0.00,,CLR,0.00,VWS V14.01,2013-03-05 17:51:00,
2013-03-05 09:56:00,64.6,14.3,27.82,ESE,120,0.0,3.6,14,0.00,,CLR,0.00,VWS V14.01,2013-03-05 17:56:00,
2013-03-05 10:01:00,65.1,14.8,27.82,ESE,118,0.0,0.0,14,0.00,,CLR,0.00,VWS V14.01,2013-03-05 18:01:00,
2013-03-05 10:06:00,65.1,14.8,27.82,ENE,68,0.0,0.0,14,0.00,,CLR,0.00,VWS V14.01,2013-03-05 18:06:00,
2013-03-05 10:11:00,65.5,15.1,27.82,ENE,78,0.0,0.0,14,0.00,,CLR,0.00,VWS V14.01,2013-03-05 18:11:00,
2013-03-05 10:16:00,65.5,15.1,27.82,NE,48,0.0,0.0,14,0.00,,CLR,0.00,VWS V14.01,2013-03-05 18:16:00,
2013-03-05 10:21:00,65.8,15.3,27.82,ENE,64,0.0,0.0,14,0.00,,CLR,0.00,VWS V14.01,2013-03-05 18:21:00,
2013-03-05 10:26:00,66.0,15.5,27.82,ESE,116,2.7,2.7,14,0.00,,CLR,0.00,VWS V14.01,2013-03-05 18:26:00,
2013-03-05 10:31:00,66.0,15.5,27.82,ESE,116,4.9,4.9,14,0.00,,CLR,0.00,VWS V14.01,2013-03-05 18:31:00,
2013-03-05 10:36:00,65.7,15.2,27.82,SE,124,8.3,8.3,14,0.00,,CLR,0.00,VWS V14.01,2013-03-05 18:36:00,
2013-03-05 10:41:00,65.8,15.3,27.79,East,99,0.0,0.0,14,0.00,,CLR,0.00,VWS V14.01,2013-03-05 18:41:00,
2013-03-05 10:46:00,65.8,15.3,27.79,East,86,3.1,3.1,14,0.00,,CLR,0.00,VWS V14.01,2013-03-05 18:46:00,
2013-03-05 10:51:00,66.0,15.5,27.79,East,79,0.0,0.0,14,0.00,,CLR,0.00,VWS V14.01,2013-03-05 18:51:00,
2013-03-05 10:56:00,66.2,15.6,27.79,SE,140,2.7,3.1,14,0.00,,CLR,0.00,VWS V14.01,2013-03-05 18:56:00,
2013-03-05 11:01:00,66.4,15.8,27.79,SE,131,2.2,2.2,14,0.00,,CLR,0.00,VWS V14.01,2013-03-05 19:01:00,
2013-03-05 11:06:00,66.9,16.2,27.79,ESE,108,4.5,4.5,14,0.00,,CLR,0.00,VWS V14.01,2013-03-05 19:06:00,
2013-03-05 11:11:00,66.9,16.2,27.79,ESE,112,3.1,3.1,14,0.00,,CLR,0.00,VWS V14.01,2013-03-05 19:11:00,
2013-03-05 11:16:00,66.7,16.1,27.79,East,93,2.2,2.2,14,0.00,,CLR,0.00,VWS V14.01,2013-03-05 19:16:00,
2013-03-05 11:21:00,66.9,16.2,27.79,East,87,2.2,2.2,14,0.00,,CLR,0.00,VWS V14.01,2013-03-05 19:21:00,
2013-03-05 11:26:00,66.9,16.2,27.79,East,97,0.0,4.0,14,0.00,,CLR,0.00,VWS V14.01,2013-03-05 19:26:00,
2013-03-05 11:31:00,67.3,16.5,27.79,East,82,0.0,2.7,14,0.00,,CLR,0.00,VWS V14.01,2013-03-05 19:31:00,
2013-03-05 11:36:00,67.3,16.5,27.79,East,101,0.0,4.0,14,0.00,,CLR,0.00,VWS V14.01,2013-03-05 19:36:00,
2013-03-05 11:41:00,67.5,16.6,27.79,East,86,0.0,0.0,14,0.00,,CLR,0.00,VWS V14.01,2013-03-05 19:41:00,
2013-03-05 11:46:00,67.8,16.9,27.79,ENE,59,0.0,0.0,14,0.00,,CLR,0.00,VWS V14.01,2013-03-05 19:46:00,
2013-03-05 11:51:00,68.4,17.4,27.79,ENE,64,0.0,0.0,14,0.00,,CLR,0.00,VWS V14.01,2013-03-05 19:51:00,
2013-03-05 11:56:00,68.5,17.5,27.79,East,99,0.0,3.6,14,0.00,,CLR,0.00,VWS V14.01,2013-03-05 19:56:00,
2013-03-05 12:01:00,68.4,17.4,27.76,ESE,122,0.0,3.1,14,0.00,,CLR,0.00,VWS V14.01,2013-03-05 20:01:00,
2013-03-05 12:06:00,68.2,17.2,27.76,ESE,103,0.0,0.0,14,0.00,,CLR,0.00,VWS V14.01,2013-03-05 20:06:00,
2013-03-05 12:11:00,68.4,17.4,27.76,ENE,74,0.0,0.0,14,0.00,,CLR,0.00,VWS V14.01,2013-03-05 20:11:00,
2013-03-05 12:16:00,68.4,17.4,27.76,NE,41,0.0,0.0,14,0.00,,CLR,0.00,VWS V14.01,2013-03-05 20:16:00,
2013-03-05 12:21:00,68.5,17.5,27.76,East,86,0.0,2.7,14,0.00,,CLR,0.00,VWS V14.01,2013-03-05 20:21:00,
2013-03-05 12:26:00,68.9,17.8,27.76,East,81,0.0,2.7,14,0.00,,CLR,0.00,VWS V14.01,2013-03-05 20:26:00,
2013-03-05 12:31:00,68.9,17.8,27.76,SE,130,0.0,2.7,14,0.00,,CLR,0.00,VWS V14.01,2013-03-05 20:31:00,
2013-03-05 12:36:00,69.1,17.9,27.76,East,93,0.0,0.0,14,0.00,,CLR,0.00,VWS V14.01,2013-03-05 20:36:00,
2013-03-05 12:41:00,69.4,18.2,27.76,ESE,119,0.0,4.5,14,0.00,,CLR,0.00,VWS V14.01,2013-03-05 20:41:00,
2013-03-05 12:46:00,69.6,18.4,27.73,ESE,109,3.6,3.6,14,0.00,,CLR,0.00,VWS V14.01,2013-03-05 20:46:00,
2013-03-05 12:51:00,69.6,18.4,27.73,SE,125,0.0,0.0,14,0.00,,CLR,0.00,VWS V14.01,2013-03-05 20:51:00,
2013-03-05 12:56:00,69.6,18.4,27.73,East,98,0.0,0.0,14,0.00,,CLR,0.00,VWS V14.01,2013-03-05 20:56:00,
2013-03-05 13:01:00,69.8,21.6,27.73,SE,125,2.7,2.7,16,0.00,,CLR,0.00,VWS V14.01,2013-03-05 21:01:00,
2013-03-05 13:06:00,70.0,21.8,27.73,East,87,0.0,0.0,16,0.00,,CLR,0.00,VWS V14.01,2013-03-05 21:06:00,
2013-03-05 13:11:00,70.2,21.9,27.73,ESE,122,0.0,2.2,16,0.00,,CLR,0.00,VWS V14.01,2013-03-05 21:11:00,
2013-03-05 13:16:00,70.3,22.0,27.73,East,93,0.0,0.0,16,0.00,,CLR,0.00,VWS V14.01,2013-03-05 21:16:00,
2013-03-05 13:21:00,70.2,21.9,27.73,ESE,116,3.1,3.1,16,0.00,,CLR,0.00,VWS V14.01,2013-03-05 21:21:00,
2013-03-05 13:26:00,70.3,22.0,27.73,ESE,110,2.2,3.1,16,0.00,,CLR,0.00,VWS V14.01,2013-03-05 21:26:00,
2013-03-05 13:31:00,70.3,22.0,27.70,South,169,0.0,2.2,16,0.00,,CLR,0.00,VWS V14.01,2013-03-05 21:31:00,
2013-03-05 13:36:00,70.2,21.9,27.70,East,96,2.7,3.1,16,0.00,,CLR,0.00,VWS V14.01,2013-03-05 21:36:00,
2013-03-05 13:41:00,70.5,22.2,27.70,SE,125,2.7,2.7,16,0.00,,CLR,0.00,VWS V14.01,2013-03-05 21:41:00,
2013-03-05 13:46:00,70.5,22.2,27.70,ESE,103,4.0,4.9,16,0.00,,CLR,0.00,VWS V14.01,2013-03-05 21:46:00,
2013-03-05 13:51:00,70.5,22.2,27.70,ESE,103,0.0,5.4,16,0.00,,CLR,0.00,VWS V14.01,2013-03-05 21:51:00,
2013-03-05 13:56:00,70.7,22.3,27.70,SE,125,2.7,3.1,16,0.00,,CLR,0.00,VWS V14.01,2013-03-05 21:56:00,
2013-03-05 14:01:00,71.2,22.8,27.70,East,100,0.0,0.0,16,0.00,,CLR,0.00,VWS V14.01,2013-03-05 22:01:00,
2013-03-05 14:06:00,71.4,22.9,27.70,East,92,0.0,0.0,16,0.00,,CLR,0.00,VWS V14.01,2013-03-05 22:06:00,
2013-03-05 14:11:00,71.6,21.5,27.70,ESE,120,0.0,2.7,15,0.00,,CLR,0.00,VWS V14.01,2013-03-05 22:11:00,
2013-03-05 14:16:00,71.8,21.7,27.67,East,101,3.1,3.6,15,0.00,,CLR,0.00,VWS V14.01,2013-03-05 22:16:00,
2013-03-05 14:21:00,71.8,21.7,27.67,SE,124,0.0,0.0,15,0.00,,CLR,0.00,VWS V14.01,2013-03-05 22:21:00,
2013-03-05 14:26:00,71.8,21.7,27.67,East,101,0.0,3.6,15,0.00,,CLR,0.00,VWS V14.01,2013-03-05 22:26:00,
2013-03-05 14:31:00,71.8,21.7,27.67,SE,145,2.2,4.5,15,0.00,,CLR,0.00,VWS V14.01,2013-03-05 22:31:00,
2013-03-05 14:36:00,71.8,21.7,27.67,SE,138,2.2,3.1,15,0.00,,CLR,0.00,VWS V14.01,2013-03-05 22:36:00,
2013-03-05 14:41:00,72.0,21.8,27.67,SE,145,0.0,2.7,15,0.00,,CLR,0.00,VWS V14.01,2013-03-05 22:41:00,
2013-03-05 14:46:00,72.3,22.1,27.67,ESE,111,2.2,3.6,15,0.00,,CLR,0.00,VWS V14.01,2013-03-05 22:46:00,
2013-03-05 14:51:00,72.5,22.3,27.67,SSE,151,2.2,4.9,15,0.00,,CLR,0.00,VWS V14.01,2013-03-05 22:51:00,
2013-03-05 14:56:00,72.3,22.1,27.67,ESE,121,4.0,4.9,15,0.00,,CLR,0.00,VWS V14.01,2013-03-05 22:56:00,
2013-03-05 15:01:00,72.3,22.1,27.67,ESE,123,0.0,0.0,15,0.00,,CLR,0.00,VWS V14.01,2013-03-05 23:01:00,
2013-03-05 15:06:00,72.5,22.3,27.67,South,170,0.0,2.2,15,0.00,,CLR,0.00,VWS V14.01,2013-03-05 23:06:00,
2013-03-05 15:11:00,72.3,22.1,27.67,East,98,0.0,2.7,15,0.00,,CLR,0.00,VWS V14.01,2013-03-05 23:11:00,
2013-03-05 15:16:00,72.3,22.1,27.67,East,99,0.0,0.0,15,0.00,,CLR,0.00,VWS V14.01,2013-03-05 23:16:00,
2013-03-05 15:21:00,72.3,22.1,27.67,ENE,77,0.0,3.1,15,0.00,,CLR,0.00,VWS V14.01,2013-03-05 23:21:00,
2013-03-05 15:26:00,72.3,22.1,27.67,ESE,112,3.1,3.1,15,0.00,,CLR,0.00,VWS V14.01,2013-03-05 23:26:00,
2013-03-05 15:31:00,72.1,22.0,27.64,East,80,0.0,2.2,15,0.00,,CLR,0.00,VWS V14.01,2013-03-05 23:31:00,
2013-03-05 15:36:00,71.8,21.7,27.64,ESE,106,2.2,2.2,15,0.00,,CLR,0.00,VWS V14.01,2013-03-05 23:36:00,
2013-03-05 15:41:00,72.0,21.8,27.64,SE,127,3.1,3.1,15,0.00,,CLR,0.00,VWS V14.01,2013-03-05 23:41:00,
2013-03-05 15:46:00,72.0,21.8,27.64,SE,125,3.1,4.0,15,0.00,,CLR,0.00,VWS V14.01,2013-03-05 23:46:00,
2013-03-05 15:51:00,71.8,21.7,27.64,East,93,0.0,0.0,15,0.00,,CLR,0.00,VWS V14.01,2013-03-05 23:51:00,
2013-03-05 15:56:00,71.6,21.5,27.64,East,94,2.2,2.7,15,0.00,,CLR,0.00,VWS V14.01,2013-03-05 23:56:00,
2013-03-05 16:01:00,71.8,21.7,27.64,ESE,120,2.7,2.7,15,0.00,,CLR,0.00,VWS V14.01,2013-03-06 00:01:00,
2013-03-05 16:06:00,71.8,21.7,27.64,East,89,0.0,2.2,15,0.00,,CLR,0.00,VWS V14.01,2013-03-06 00:06:00,
2013-03-05 16:11:00,72.0,21.8,27.64,East,101,3.6,3.6,15,0.00,,CLR,0.00,VWS V14.01,2013-03-06 00:11:00,
2013-03-05 16:16:00,72.0,21.8,27.64,ESE,114,2.2,4.5,15,0.00,,CLR,0.00,VWS V14.01,2013-03-06 00:16:00,
2013-03-05 16:21:00,72.1,22.0,27.64,SE,133,2.7,4.5,15,0.00,,CLR,0.00,VWS V14.01,2013-03-06 00:21:00,
2013-03-05 16:26:00,72.1,22.0,27.64,SSE,163,0.0,2.2,15,0.00,,CLR,0.00,VWS V14.01,2013-03-06 00:26:00,
2013-03-05 16:31:00,72.1,22.0,27.61,SE,141,3.1,3.6,15,0.00,,CLR,0.00,VWS V14.01,2013-03-06 00:31:00,
2013-03-05 16:36:00,72.0,21.8,27.61,SSE,151,0.0,3.6,15,0.00,,CLR,0.00,VWS V14.01,2013-03-06 00:36:00,
2013-03-05 16:41:00,71.8,21.7,27.61,SE,139,0.0,2.7,15,0.00,,CLR,0.00,VWS V14.01,2013-03-06 00:41:00,
2013-03-05 16:46:00,71.6,21.5,27.61,ESE,121,3.6,3.6,15,0.00,,CLR,0.00,VWS V14.01,2013-03-06 00:46:00,
2013-03-05 16:51:00,71.4,22.9,27.61,ESE,123,3.1,3.1,16,0.00,,CLR,0.00,VWS V14.01,2013-03-06 00:51:00,
2013-03-05 16:56:00,71.2,22.8,27.61,SE,135,3.1,4.0,16,0.00,,CLR,0.00,VWS V14.01,2013-03-06 00:56:00,
2013-03-05 17:01:00,71.1,22.6,27.61,ESE,122,4.5,5.8,16,0.00,,CLR,0.00,VWS V14.01,2013-03-06 01:01:00,
2013-03-05 17:06:00,70.9,22.5,27.61,ESE,111,3.1,4.9,16,0.00,,CLR,0.00,VWS V14.01,2013-03-06 01:06:00,
2013-03-05 17:11:00,70.5,22.2,27.61,East,96,4.0,5.8,16,0.00,,CLR,0.00,VWS V14.01,2013-03-06 01:11:00,
2013-03-05 17:16:00,70.2,21.9,27.61,ESE,106,4.0,6.3,16,0.00,,CLR,0.00,VWS V14.01,2013-03-06 01:16:00,
2013-03-05 17:21:00,70.0,21.8,27.61,ESE,123,3.6,3.6,16,0.00,,CLR,0.00,VWS V14.01,2013-03-06 01:21:00,
2013-03-05 17:26:00,69.8,21.6,27.61,ESE,123,4.9,4.9,16,0.00,,CLR,0.00,VWS V14.01,2013-03-06 01:26:00,
2013-03-05 17:31:00,69.3,21.2,27.61,ESE,118,4.0,4.0,16,0.00,,CLR,0.00,VWS V14.01,2013-03-06 01:31:00,
2013-03-05 17:36:00,69.1,17.9,27.61,SE,124,3.1,3.1,14,0.00,,CLR,0.00,VWS V14.01,2013-03-06 01:36:00,
2013-03-05 17:41:00,68.9,17.8,27.61,ESE,113,2.7,4.0,14,0.00,,CLR,0.00,VWS V14.01,2013-03-06 01:41:00,
2013-03-05 17:46:00,68.7,17.6,27.61,East,101,4.9,4.9,14,0.00,,CLR,0.00,VWS V14.01,2013-03-06 01:46:00,
2013-03-05 17:51:00,68.5,17.5,27.61,ESE,122,2.7,3.6,14,0.00,,CLR,0.00,VWS V14.01,2013-03-06 01:51:00,
2013-03-05 17:56:00,68.4,17.4,27.61,ESE,123,2.7,3.1,14,0.00,,CLR,0.00,VWS V14.01,2013-03-06 01:56:00,
2013-03-05 18:01:00,68.2,17.2,27.61,ESE,123,2.7,3.6,14,0.00,,CLR,0.00,VWS V14.01,2013-03-06 02:01:00,
2013-03-05 18:06:00,68.0,17.1,27.61,SE,129,4.9,4.9,14,0.00,,CLR,0.00,VWS V14.01,2013-03-06 02:06:00,
2013-03-05 18:11:00,67.8,16.9,27.61,SE,130,0.0,0.0,14,0.00,,CLR,0.00,VWS V14.01,2013-03-06 02:11:00,
2013-03-05 18:16:00,67.5,16.6,27.64,SE,127,3.6,5.4,14,0.00,,CLR,0.00,VWS V14.01,2013-03-06 02:16:00,
2013-03-05 18:21:00,67.5,16.6,27.64,East,101,3.6,3.6,14,0.00,,CLR,0.00,VWS V14.01,2013-03-06 02:21:00,
2013-03-05 18:26:00,67.3,16.5,27.64,SE,124,2.7,4.0,14,0.00,,CLR,0.00,VWS V14.01,2013-03-06 02:26:00,
2013-03-05 18:31:00,67.1,16.3,27.64,ESE,108,3.6,4.0,14,0.00,,CLR,0.00,VWS V14.01,2013-03-06 02:31:00,
2013-03-05 18:36:00,67.1,16.3,27.64,ESE,123,3.6,4.0,14,0.00,,CLR,0.00,VWS V14.01,2013-03-06 02:36:00,
2013-03-05 18:41:00,66.9,16.2,27.64,ESE,111,3.6,3.6,14,0.00,,CLR,0.00,VWS V14.01,2013-03-06 02:41:00,
2013-03-05 18:46:00,66.7,16.1,27.64,ESE,119,2.7,2.7,14,0.00,,CLR,0.00,VWS V14.01,2013-03-06 02:46:00,
2013-03-05 18:51:00,66.6,15.9,27.64,SE,130,0.0,3.6,14,0.00,,CLR,0.00,VWS V14.01,2013-03-06 02:51:00,
2013-03-05 18:56:00,66.4,15.8,27.64,SE,142,2.2,3.6,14,0.00,,CLR,0.00,VWS V14.01,2013-03-06 02:56:00,
2013-03-05 19:01:00,66.2,15.6,27.64,ESE,103,2.2,3.1,14,0.00,,CLR,0.00,VWS V14.01,2013-03-06 03:01:00,
2013-03-05 19:06:00,66.0,15.5,27.64,ESE,109,0.0,2.7,14,0.00,,CLR,0.00,VWS V14.01,2013-03-06 03:06:00,
2013-03-05 19:11:00,65.8,15.3,27.64,East,99,0.0,3.1,14,0.00,,CLR,0.00,VWS V14.01,2013-03-06 03:11:00,
2013-03-05 19:16:00,65.7,15.2,27.64,ESE,121,0.0,2.7,14,0.00,,CLR,0.00,VWS V14.01,2013-03-06 03:16:00,
2013-03-05 19:21:00,65.7,15.2,27.64,ESE,114,0.0,0.0,14,0.00,,CLR,0.00,VWS V14.01,2013-03-06 03:21:00,
2013-03-05 19:26:00,65.3,14.9,27.64,ESE,111,0.0,0.0,14,0.00,,CLR,0.00,VWS V14.01,2013-03-06 03:26:00,
2013-03-05 19:31:00,65.1,14.8,27.64,SSE,160,0.0,2.2,14,0.00,,CLR,0.00,VWS V14.01,2013-03-06 03:31:00,
2013-03-05 19:36:00,64.9,14.6,27.64,SE,145,0.0,3.1,14,0.00,,CLR,0.00,VWS V14.01,2013-03-06 03:36:00,
2013-03-05 19:41:00,64.9,14.6,27.64,SE,127,0.0,0.0,14,0.00,,CLR,0.00,VWS V14.01,2013-03-06 03:41:00,
2013-03-05 19:46:00,64.8,14.5,27.64,East,99,0.0,0.0,14,0.00,,CLR,0.00,VWS V14.01,2013-03-06 03:46:00,
2013-03-05 19:51:00,64.6,14.3,27.64,ESE,121,0.0,0.0,14,0.00,,CLR,0.00,VWS V14.01,2013-03-06 03:51:00,
2013-03-05 19:56:00,64.4,14.2,27.64,ESE,115,2.7,2.7,14,0.00,,CLR,0.00,VWS V14.01,2013-03-06 03:56:00,
2013-03-05 20:01:00,64.2,15.6,27.64,East,91,0.0,0.0,15,0.00,,CLR,0.00,VWS V14.01,2013-03-06 04:01:00,
2013-03-05 20:06:00,64.2,15.6,27.64,East,97,0.0,0.0,15,0.00,,CLR,0.00,VWS V14.01,2013-03-06 04:06:00,
2013-03-05 20:11:00,64.2,15.6,27.64,ENE,78,2.2,2.2,15,0.00,,CLR,0.00,VWS V14.01,2013-03-06 04:11:00,
2013-03-05 20:16:00,64.0,15.5,27.64,East,96,0.0,0.0,15,0.00,,CLR,0.00,VWS V14.01,2013-03-06 04:16:00,
2013-03-05 20:21:00,63.9,15.3,27.64,East,84,0.0,0.0,15,0.00,,CLR,0.00,VWS V14.01,2013-03-06 04:21:00,
2013-03-05 20:26:00,63.7,15.2,27.64,East,84,0.0,0.0,15,0.00,,CLR,0.00,VWS V14.01,2013-03-06 04:26:00,
2013-03-05 20:31:00,63.3,14.9,27.64,ENE,75,0.0,0.0,15,0.00,,CLR,0.00,VWS V14.01,2013-03-06 04:31:00,
2013-03-05 20:36:00,63.0,14.6,27.64,East,79,0.0,0.0,15,0.00,,CLR,0.00,VWS V14.01,2013-03-06 04:36:00,
2013-03-05 20:41:00,62.6,14.3,27.64,East,81,0.0,0.0,15,0.00,,CLR,0.00,VWS V14.01,2013-03-06 04:41:00,
2013-03-05 20:46:00,62.4,14.2,27.64,NE,51,0.0,0.0,15,0.00,,CLR,0.00,VWS V14.01,2013-03-06 04:46:00,
2013-03-05 20:51:00,62.2,14.0,27.64,NE,52,0.0,0.0,15,0.00,,CLR,0.00,VWS V14.01,2013-03-06 04:51:00,
2013-03-05 20:56:00,62.1,13.9,27.64,ESE,112,2.2,2.2,15,0.00,,CLR,0.00,VWS V14.01,2013-03-06 04:56:00,
2013-03-05 21:00:00,62.1,13.9,27.64,East,79,0.0,0.0,15,0.00,,CLR,0.00,VWS V14.01,2013-03-06 05:00:00,
2013-03-05 21:05:00,62.1,13.9,27.64,SE,126,0.0,0.0,15,0.00,,CLR,0.00,VWS V14.01,2013-03-06 05:05:00,
2013-03-05 21:10:00,61.9,13.8,27.64,SE,126,0.0,0.0,15,0.00,,CLR,0.00,VWS V14.01,2013-03-06 05:10:00,
2013-03-05 21:15:00,61.7,13.6,27.64,NE,39,0.0,0.0,15,0.00,,CLR,0.00,VWS V14.01,2013-03-06 05:15:00,
2013-03-05 21:20:00,61.5,13.5,27.64,NNE,32,0.0,0.0,15,0.00,,CLR,0.00,VWS V14.01,2013-03-06 05:20:00,
2013-03-05 21:25:00,61.3,13.3,27.64,NNE,22,0.0,0.0,15,0.00,,CLR,0.00,VWS V14.01,2013-03-06 05:25:00,
2013-03-05 21:30:00,61.0,13.0,27.64,NE,34,0.0,0.0,15,0.00,,CLR,0.00,VWS V14.01,2013-03-06 05:30:00,
2013-03-05 21:35:00,60.4,14.1,27.64,ENE,58,0.0,0.0,16,0.00,,CLR,0.00,VWS V14.01,2013-03-06 05:35:00,
2013-03-05 21:40:00,60.3,13.9,27.64,NNE,32,0.0,0.0,16,0.00,,CLR,0.00,VWS V14.01,2013-03-06 05:40:00,
2013-03-05 21:45:00,60.3,13.9,27.64,NE,50,0.0,0.0,16,0.00,,CLR,0.00,VWS V14.01,2013-03-06 05:45:00,
2013-03-05 21:50:00,60.3,13.9,27.64,ENE,60,0.0,0.0,16,0.00,,CLR,0.00,VWS V14.01,2013-03-06 05:50:00,
2013-03-05 21:55:00,60.1,13.8,27.64,NE,45,0.0,0.0,16,0.00,,CLR,0.00,VWS V14.01,2013-03-06 05:55:00,
2013-03-05 22:00:00,60.3,13.9,27.64,NE,46,0.0,0.0,16,0.00,,CLR,0.00,VWS V14.01,2013-03-06 06:00:00,
2013-03-05 22:05:00,60.3,13.9,27.64,NE,46,0.0,0.0,16,0.00,,CLR,0.00,VWS V14.01,2013-03-06 06:05:00,
2013-03-05 22:10:00,60.1,13.8,27.64,NE,46,0.0,0.0,16,0.00,,CLR,0.00,VWS V14.01,2013-03-06 06:10:00,
2013-03-05 22:15:00,59.9,13.6,27.64,NE,48,0.0,0.0,16,0.00,,CLR,0.00,VWS V14.01,2013-03-06 06:15:00,
2013-03-05 22:20:00,59.9,13.6,27.64,SE,125,2.2,2.2,16,0.00,,CLR,0.00,VWS V14.01,2013-03-06 06:20:00,
2013-03-05 22:25:00,60.4,14.1,27.64,East,86,0.0,0.0,16,0.00,,CLR,0.00,VWS V14.01,2013-03-06 06:25:00,
2013-03-05 22:30:00,60.6,14.2,27.64,NE,42,0.0,0.0,16,0.00,,CLR,0.00,VWS V14.01,2013-03-06 06:30:00,
2013-03-05 22:35:00,60.6,14.2,27.64,ENE,64,0.0,0.0,16,0.00,,CLR,0.00,VWS V14.01,2013-03-06 06:35:00,
2013-03-05 22:40:00,60.4,14.1,27.64,NE,38,0.0,0.0,16,0.00,,CLR,0.00,VWS V14.01,2013-03-06 06:40:00,
2013-03-05 22:45:00,60.1,13.8,27.64,NE,48,0.0,0.0,16,0.00,,CLR,0.00,VWS V14.01,2013-03-06 06:45:00,
2013-03-05 22:50:00,59.9,13.6,27.64,NNE,29,0.0,0.0,16,0.00,,CLR,0.00,VWS V14.01,2013-03-06 06:50:00,
2013-03-05 22:55:00,59.7,13.5,27.64,NNE,25,0.0,0.0,16,0.00,,CLR,0.00,VWS V14.01,2013-03-06 06:55:00,
2013-03-05 23:00:00,59.2,13.0,27.64,North,4,0.0,0.0,16,0.00,,CLR,0.00,VWS V14.01,2013-03-06 07:00:00,
2013-03-05 23:05:00,58.8,12.8,27.64,North,1,0.0,0.0,16,0.00,,CLR,0.00,VWS V14.01,2013-03-06 07:05:00,
2013-03-05 23:10:00,58.5,12.5,27.64,North,1,0.0,0.0,16,0.00,,CLR,0.00,VWS V14.01,2013-03-06 07:10:00,
2013-03-05 23:15:00,58.3,12.3,27.61,North,2,0.0,0.0,16,0.00,,CLR,0.00,VWS V14.01,2013-03-06 07:15:00,
2013-03-05 23:20:00,58.3,12.3,27.61,North,2,0.0,0.0,16,0.00,,CLR,0.00,VWS V14.01,2013-03-06 07:20:00,
2013-03-05 23:25:00,58.1,12.2,27.61,North,2,0.0,0.0,16,0.00,,CLR,0.00,VWS V14.01,2013-03-06 07:25:00,
2013-03-05 23:30:00,57.7,11.9,27.61,North,2,0.0,0.0,16,0.00,,CLR,0.00,VWS V14.01,2013-03-06 07:30:00,
2013-03-05 23:35:00,57.6,11.7,27.61,North,2,0.0,0.0,16,0.00,,CLR,0.00,VWS V14.01,2013-03-06 07:35:00,
2013-03-05 23:40:00,57.4,11.6,27.61,North,4,0.0,0.0,16,0.00,,CLR,0.00,VWS V14.01,2013-03-06 07:40:00,
2013-03-05 23:45:00,57.6,11.7,27.61,ENE,61,0.0,0.0,16,0.00,,CLR,0.00,VWS V14.01,2013-03-06 07:45:00,
2013-03-05 23:50:00,57.7,11.9,27.61,ENE,61,0.0,0.0,16,0.00,,CLR,0.00,VWS V14.01,2013-03-06 07:50:00,
2013-03-05 23:55:00,57.9,12.0,27.61,East,86,0.0,0.0,16,0.00,,CLR,0.00,VWS V14.01,2013-03-06 07:55:00,